Regional Weather Roundup
Issued by NWS

Current Version | Previous Version | Text Only | Print | Product List | Glossary On
Versions: 1 2 3 4 5 6 7 8 9 10 11 12 13 14 15 16 17 18 19 20 21 22 23 24 25 26 27 28 29 30 31 32 33 34 35 36 37 38 39 40 41 42 43 44 45 46 47 48 49 50
000
ASUS44 KOUN 030010
RWROK

WEATHER ROUNDUP FOR OKLAHOMA
NATIONAL WEATHER SERVICE NORMAN OK
700 PM CDT TUE SEP 02 2014

NOTE: "FAIR" INDICATES FEW OR NO CLOUDS BELOW 12,000 FEET WITH NO
      SIGNIFICANT WEATHER AND/OR OBSTRUCTIONS TO VISIBILITY.

OKZ001>007-009>012-014-015-017-030100-
NORTHWEST OKLAHOMA AND THE PANHANDLE

CITY           SKY/WX    TMP DP  RH WIND       PRES   REMARKS
GAGE           PTSUNNY   91  66  43 S13G24    29.86S HX  93
6HR MIN TEMP:  85; 6HR MAX TEMP:  95;

ENID/WOODRING  MOSUNNY   90  72  55 SE17      29.86F HX  96
$$

OKZ016-021>023-033>039-044-045-030100-
SOUTHWEST OKLAHOMA

CITY           SKY/WX    TMP DP  RH WIND       PRES   REMARKS
LAWTON/REGL    SUNNY     96  63  33 S17       29.85S HX  97
6HR MIN TEMP:  94; 6HR MAX TEMP: 100;

LAWTON/FT SILL MOSUNNY   95  65  36 S21       29.85S HX  97
FREDERICK      SUNNY     96  65  35 SE22      29.82S HX  98
CLINTON        SUNNY     95  60  31 S23       29.88S HX  95
HOBART         SUNNY     94  64  37 S17G28    29.86R HX  95
ALTUS AFB      SUNNY     95  65  36 S18G26    29.84S HX  97
$$

OKZ018>020-024>031-030100-
CENTRAL OKLAHOMA

CITY           SKY/WX    TMP DP  RH WIND       PRES   REMARKS
OKLAHOMA CITY  MOSUNNY   90  68  48 S17       29.89R HX  94
6HR MIN TEMP:  78; 6HR MAX TEMP:  92; 6HR PCP: TRACE;

OKC/WILEY POST SUNNY     90  69  50 S17G23    29.88S HX  94
OKC/TINKER AFB SUNNY     87  69  54 SE12G18   29.90S HX  92
STILLWATER     SUNNY     84  71  65 E13       29.90S
GUTHRIE        SUNNY     88  70  55 SE13      29.88S HX  93
$$

OKZ008-013-054>072-030100-
NORTHEAST OKLAHOMA

CITY           SKY/WX    TMP DP  RH WIND       PRES   REMARKS
TULSA          MOCLDY    78  68  71 SE13      29.92F
6HR MIN TEMP:  70; 6HR MAX TEMP:  80;

TULSA/JONES    PTCLDY    78  68  71 E10       29.93S
PONCA CITY     SUNNY     83  70  64 SE8       29.90S
BARTLESVILLE   CLEAR     79  70  74 SE6       29.94R
MUSKOGEE       MOCLDY    75  68  78 E8        29.95F
$$

OKZ032-040>043-046>053-073>077-030100-
SOUTH CENTRAL/SOUTHEAST OKLAHOMA

CITY           SKY/WX    TMP DP  RH WIND       PRES   REMARKS
ARDMORE/DWNTWN SUNNY     88  68  51 SE8       29.90S HX  91
MCALESTER      CLEAR     84  70  62 SE3       29.93F
$$



USA.gov is the U.S. government's official web portal to all federal, state and local government web resources and services.